Simultaneous Nadir Overpasses (SNOs) Predictions

Prediction of SNOs between NOAA-20 and AQUA Satellite Orbit:

Table of predicted SNOs for the next 14.0 days since TLE Epoch: 10/20/2018
Index Date (NOAA-20) Time (NOAA-20) Lat,Lon (NOAA-20) SZA (NOAA-20 ) Date (AQUA) Time (AQUA) Lat,Lon (AQUA) SZA (AQUA ) Distance(km) Time Diff (sec)
1 10/22/2018 14:29:41 75.98,-158.58 107.30 10/22/2018 14:29:57 75.98,-158.54 107.28 1.00 16
2 10/22/2018 15:20:03 -77.04, 12.71 73.94 10/22/2018 15:19:03 -77.04, 12.65 73.87 1.57 60
3 10/25/2018 05:56:03 -75.47, 148.23 71.25 10/25/2018 05:57:11 -75.46, 148.16 71.29 2.27 68
4 10/25/2018 06:46:25 76.48, -41.02 107.61 10/25/2018 06:46:15 76.48, -41.06 107.63 1.21 10
5 10/27/2018 22:12:55 -75.57, -95.69 70.49 10/27/2018 22:13:36 -75.57, -95.64 70.54 1.43 41
6 10/27/2018 23:03:17 76.58, 75.10 108.38 10/27/2018 23:02:40 76.58, 75.17 108.39 1.99 37
7 10/30/2018 14:29:37 -76.17, 22.08 70.32 10/30/2018 14:29:52 -76.17, 22.03 70.32 1.42 15
8 10/30/2018 15:20:01 77.06,-167.19 108.66 10/30/2018 15:18:58 77.06,-167.25 108.72 1.42 63
9 11/02/2018 05:56:08 75.15, -32.73 111.65 11/02/2018 05:57:12 75.15, -32.67 111.57 1.85 64




NCC Satellite Simultaneous Nadir Overpasses (SNOs) Prediction Service
